Ray 1.0

operational
NORAD ID: 62627 Int'l Des: 2025-009 Owner: INVER Country: US
LEOCIRCULARRETROGRADESSO

关于 Ray 1.0

正在加载描述...

实时位置

正在加载3D地球...

即将过境

高度历史

Altitude vs Time

uPlot chart will show altitude changes over time

两行轨道根数

1 62627U 25009U 26062.12556811 .00004384 00000-0 20663-3 0 9993
2 62627 97.4057 142.3953 0007320 290.2676 69.7772 15.19993259 62568
Epoch: Mar 3, 2026 • Age: 25 hours

当前状态

高度 516.2 km
速度 7.61 km/s
星下点 48.44°N, 47.11°W
发射日期 Jan 14, 2025
运行时间 1.1 years
类型 other

技术详情

分类 Payload
质量 44.00 kg
干质量 32.00 kg
总质量 63.00 kg
长度 0.90 m
直径 0.70 m
跨度 0.90 m
形状 Box+cone
制造商 INVER
平台类型 Ray
阶段状态 In Orbit
所有者/国家 INVER/US

大型星座

Loading constellations...